| time (UTC) | temp F | wind direction | speed knots | gust knots | rain 1hr in | rain 24hr in | rain mn in | humidity % | barometer mb |
| 20260503211538 | 62 | 0 | 0.0 | 6.1 | 0.00 | 0.00 | 0.00 | 63 | 1013.7 |
| 20260503211016 | 62 | 0 | 0.0 | 6.1 | 0.00 | 0.00 | 0.00 | 63 | 1013.6 |
| 20260503210516 | 62 | 0 | 0.0 | 6.1 | 0.00 | 0.00 | 0.00 | 62 | 1013.7 |
| 20260503210032 | 62 | 0 | 0.0 | 4.3 | 0.00 | 0.00 | 0.00 | 63 | 1013.5 |
| 20260503205522 | 62 | 0 | 0.0 | 3.5 | 0.00 | 0.00 | 0.00 | 62 | 1013.6 |
| 20260503205014 | 62 | 0 | 0.0 | 2.6 | 0.00 | 0.00 | 0.00 | 63 | 1013.7 |
| 20260503204531 | 62 | 0 | 0.0 | 2.6 | 0.00 | 0.00 | 0.00 | 61 | 1013.7 |
| 20260503204013 | 62 | 0 | 0.0 | 5.2 | 0.00 | 0.00 | 0.00 | 62 | 1013.7 |
| 20260503203513 | 62 | 0 | 0.0 | 5.2 | 0.00 | 0.00 | 0.00 | 62 | 1013.8 |
| 20260503203032 | 62 | 0 | 0.0 | 5.2 | 0.00 | 0.00 | 0.00 | 60 | 1013.9 |
| 20260503202515 | 63 | 0 | 0.0 | 4.3 | 0.00 | 0.00 | 0.00 | 62 | 1013.8 |
| 20260503202015 | 63 | 0 | 0.0 | 0.0 | 0.00 | 0.00 | 0.00 | 60 | 1013.8 |
| 20260503201534 | 62 | 0 | 0.0 | 3.5 | 0.00 | 0.00 | 0.00 | 60 | 1013.8 |
| 20260503201013 | 62 | 0 | 0.0 | 3.5 | 0.00 | 0.00 | 0.00 | 62 | 1013.8 |
| 20260503200515 | 61 | 0 | 0.0 | 3.5 | 0.00 | 0.00 | 0.00 | 63 | 1014.0 |
| 20260503200033 | 61 | 0 | 0.0 | 4.3 | 0.00 | 0.00 | 0.00 | 64 | 1013.9 |
| 20260503195517 | 61 | 0 | 0.0 | 4.3 | 0.00 | 0.00 | 0.00 | 62 | 1014.0 |
| 20260503195014 | 61 | 0 | 0.0 | 2.6 | 0.00 | 0.00 | 0.00 | 65 | 1014.0 |
| 20260503194535 | 62 | 0 | 0.0 | 2.6 | 0.00 | 0.00 | 0.00 | 63 | 1014.0 |
| 20260503194014 | 62 | 0 | 0.0 | 0.0 | 0.00 | 0.00 | 0.00 | 64 | 1014.0 |
| 20260503193516 | 61 | 0 | 0.0 | 0.9 | 0.00 | 0.00 | 0.00 | 63 | 1014.1 |
| 20260503193039 | 61 | 0 | 0.0 | 5.2 | 0.00 | 0.00 | 0.00 | 63 | 1014.1 |
| 20260503192514 | 61 | 0 | 0.0 | 5.2 | 0.00 | 0.00 | 0.00 | 62 | 1014.0 |
| 20260503192015 | 61 | 0 | 0.0 | 1.7 | 0.00 | 0.00 | 0.00 | 63 | 1014.0 |
| 20260503191530 | 61 | 0 | 0.0 | 1.7 | 0.00 | 0.00 | 0.00 | 63 | 1014.0 |
| 20260503191016 | 61 | 0 | 0.0 | 6.1 | 0.00 | 0.00 | 0.00 | 64 | 1014.0 |
| 20260503190515 | 61 | 0 | 0.0 | 6.1 | 0.00 | 0.00 | 0.00 | 64 | 1014.0 |
| 20260503190039 | 61 | 0 | 0.0 | 1.7 | 0.00 | 0.00 | 0.00 | 65 | 1014.0 |
| 20260503185515 | 60 | 0 | 0.0 | 3.5 | 0.00 | 0.00 | 0.00 | 66 | 1013.9 |
| 20260503185016 | 60 | 0 | 0.0 | 3.5 | 0.00 | 0.00 | 0.00 | 62 | 1014.0 |
| 20260503184537 | 61 | 0 | 0.0 | 3.5 | 0.00 | 0.00 | 0.00 | 62 | 1014.0 |
| 20260503184015 | 61 | 0 | 0.0 | 1.7 | 0.00 | 0.00 | 0.00 | 64 | 1013.9 |
| 20260503183513 | 61 | 0 | 0.0 | 0.0 | 0.00 | 0.00 | 0.00 | 64 | 1013.8 |
| 20260503183030 | 60 | 0 | 0.0 | 3.5 | 0.00 | 0.00 | 0.00 | 66 | 1013.9 |
| 20260503182523 | 60 | 0 | 0.0 | 3.5 | 0.00 | 0.00 | 0.00 | 67 | 1013.9 |
| 20260503182017 | 60 | 179 | 0.0 | 2.6 | 0.00 | 0.00 | 0.00 | 65 | 1013.9 |
| 20260503181533 | 60 | 0 | 0.0 | 1.7 | 0.00 | 0.00 | 0.00 | 66 | 1013.8 |
| 20260503181014 | 60 | 0 | 0.0 | 0.0 | 0.00 | 0.00 | 0.00 | 66 | 1013.8 |
| 20260503180514 | 59 | 0 | 0.0 | 0.0 | 0.00 | 0.00 | 0.00 | 66 | 1013.8 |
| 20260503180030 | 59 | 0 | 0.0 | 3.5 | 0.00 | 0.00 | 0.00 | 67 | 1013.8 |
| 20260503175513 | 59 | 0 | 0.0 | 3.5 | 0.00 | 0.00 | 0.00 | 68 | 1013.8 |
| 20260503175013 | 59 | 46 | 0.0 | 3.5 | 0.00 | 0.00 | 0.00 | 71 | 1013.9 |
| 20260503174541 | 59 | 0 | 0.0 | 3.5 | 0.00 | 0.00 | 0.00 | 73 | 1014.0 |
| 20260503174013 | 58 | 0 | 0.0 | 5.2 | 0.00 | 0.00 | 0.00 | 69 | 1014.0 |
| 20260503173515 | 58 | 0 | 0.0 | 5.2 | 0.00 | 0.00 | 0.00 | 71 | 1014.0 |
| 20260503173032 | 58 | 18 | 1.7 | 5.2 | 0.00 | 0.00 | 0.00 | 69 | 1013.9 |
| 20260503172514 | 58 | 0 | 0.0 | 3.5 | 0.00 | 0.00 | 0.00 | 73 | 1013.9 |
| 20260503172014 | 58 | 0 | 0.0 | 3.5 | 0.00 | 0.00 | 0.00 | 70 | 1013.9 |
| 20260503171530 | 57 | 0 | 0.0 | 3.5 | 0.00 | 0.00 | 0.00 | 71 | 1013.8 |
| 20260503171013 | 57 | 0 | 0.0 | 0.0 | 0.00 | 0.00 | 0.00 | 74 | 1014.0 |
| 20260503170514 | 57 | 0 | 0.0 | 4.3 | 0.00 | 0.00 | 0.00 | 74 | 1014.0 |
| 20260503151014 | 54 | 0 | 0.0 | 0.0 | 0.00 | 0.00 | 0.00 | 88 | 1013.5 |
| 20260503150514 | 53 | 0 | 0.0 | 0.0 | 0.00 | 0.00 | 0.00 | 88 | 1013.5 |
| 20260503131013 | 52 | 0 | 0.0 | 0.0 | 0.00 | 0.00 | 0.00 | 88 | 1012.4 |
| 20260503130513 | 52 | 0 | 0.0 | 0.0 | 0.00 | 0.00 | 0.00 | 88 | 1012.3 |
| 20260503110515 | 52 | 0 | 0.0 | 0.0 | 0.00 | 0.00 | 0.00 | 87 | 1012.3 |
| 20260503090513 | 53 | 0 | 0.0 | 0.0 | 0.00 | 0.00 | 0.00 | 84 | 1012.4 |
| 20260503081543 | 54 | 0 | 0.0 | 0.0 | 0.00 | 0.00 | 0.00 | 83 | 1012.9 |
| 20260503081014 | 54 | 0 | 0.0 | 0.0 | 0.00 | 0.00 | 0.00 | 83 | 1013.1 |
| 20260503080515 | 54 | 0 | 0.0 | 0.0 | 0.00 | 0.00 | 0.00 | 82 | 1013.1 |
| 20260503072514 | 54 | 0 | 0.0 | 0.0 | 0.00 | 0.00 | 0.00 | 82 | 1013.0 |
| 20260503072018 | 54 | 0 | 0.0 | 0.0 | 0.00 | 0.00 | 0.00 | 82 | 1013.0 |
| 20260503071541 | 54 | 0 | 0.0 | 0.0 | 0.00 | 0.00 | 0.00 | 82 | 1013.0 |
| 20260503071013 | 54 | 0 | 0.0 | 0.0 | 0.00 | 0.00 | 0.00 | 82 | 1013.0 |
| 20260503070514 | 54 | 0 | 0.0 | 0.0 | 0.00 | 0.00 | 0.00 | 82 | 1013.0 |
| 20260503055014 | 54 | 0 | 0.0 | 0.0 | 0.00 | 0.00 | 0.00 | 81 | 1013.2 |
| 20260503054535 | 54 | 0 | 0.0 | 0.0 | 0.00 | 0.00 | 0.00 | 81 | 1013.2 |
| 20260503054050 | 54 | 0 | 0.0 | 0.0 | 0.00 | 0.00 | 0.00 | 81 | 1013.3 |
| 20260503053512 | 54 | 0 | 0.0 | 0.0 | 0.00 | 0.00 | 0.00 | 80 | 1013.3 |
| 20260503053034 | 55 | 0 | 0.0 | 0.0 | 0.00 | 0.00 | 0.00 | 80 | 1013.3 |
| 20260503052514 | 55 | 0 | 0.0 | 0.0 | 0.00 | 0.00 | 0.00 | 81 | 1013.3 |
| 20260503052018 | 55 | 0 | 0.0 | 0.0 | 0.00 | 0.00 | 0.00 | 80 | 1013.4 |
| 20260503051530 | 55 | 0 | 0.0 | 0.0 | 0.00 | 0.00 | 0.00 | 80 | 1013.4 |
| 20260503051012 | 55 | 0 | 0.0 | 0.0 | 0.00 | 0.00 | 0.00 | 80 | 1013.4 |
| 20260503050513 | 55 | 0 | 0.0 | 0.0 | 0.00 | 0.00 | 0.00 | 80 | 1013.5 |
| 20260503050032 | 55 | 0 | 0.0 | 0.0 | 0.00 | 0.00 | 0.00 | 80 | 1013.4 |
| 20260503045519 | 55 | 0 | 0.0 | 0.0 | 0.00 | 0.00 | 0.00 | 80 | 1013.4 |
| 20260503045016 | 55 | 0 | 0.0 | 0.0 | 0.00 | 0.00 | 0.00 | 80 | 1013.2 |
| 20260503044529 | 55 | 0 | 0.0 | 0.0 | 0.00 | 0.00 | 0.00 | 80 | 1013.2 |
| 20260503044012 | 55 | 0 | 0.0 | 0.0 | 0.00 | 0.00 | 0.00 | 80 | 1013.2 |
| 20260503043512 | 55 | 0 | 0.0 | 0.0 | 0.00 | 0.00 | 0.00 | 80 | 1013.1 |
| 20260503043031 | 55 | 0 | 0.0 | 0.0 | 0.00 | 0.00 | 0.00 | 80 | 1013.0 |
| 20260503042514 | 55 | 0 | 0.0 | 0.0 | 0.00 | 0.00 | 0.00 | 80 | 1013.0 |
| 20260503042014 | 55 | 0 | 0.0 | 0.0 | 0.00 | 0.00 | 0.00 | 80 | 1013.0 |
| 20260503041532 | 55 | 0 | 0.0 | 0.0 | 0.00 | 0.00 | 0.00 | 80 | 1013.0 |
| 20260503041012 | 55 | 0 | 0.0 | 0.0 | 0.00 | 0.00 | 0.00 | 79 | 1012.9 |
| 20260503040516 | 55 | 0 | 0.0 | 4.3 | 0.00 | 0.00 | 0.00 | 79 | 1012.7 |
| 20260503040032 | 55 | 0 | 0.9 | 4.3 | 0.00 | 0.00 | 0.00 | 79 | 1012.8 |
| 20260503035513 | 55 | 0 | 0.0 | 0.9 | 0.00 | 0.00 | 0.00 | 80 | 1012.6 |
| 20260503035014 | 55 | 0 | 0.0 | 0.0 | 0.00 | 0.00 | 0.00 | 80 | 1012.5 |
| 20260503034534 | 55 | 0 | 0.0 | 0.0 | 0.00 | 0.00 | 0.00 | 80 | 1012.4 |
| 20260503034014 | 56 | 0 | 0.0 | 0.0 | 0.00 | 0.00 | 0.00 | 79 | 1012.4 |
| 20260503033514 | 56 | 0 | 0.0 | 0.0 | 0.00 | 0.00 | 0.00 | 79 | 1012.4 |
| 20260503033032 | 56 | 0 | 0.0 | 0.0 | 0.00 | 0.00 | 0.00 | 79 | 1012.3 |
| 20260503032512 | 56 | 0 | 0.0 | 0.0 | 0.00 | 0.00 | 0.00 | 79 | 1012.3 |
| 20260503032012 | 56 | 0 | 0.0 | 2.6 | 0.00 | 0.00 | 0.00 | 79 | 1012.2 |
| 20260503031530 | 56 | 0 | 0.0 | 2.6 | 0.00 | 0.00 | 0.00 | 79 | 1012.2 |
| 20260503031014 | 56 | 0 | 0.0 | 2.6 | 0.00 | 0.00 | 0.00 | 79 | 1012.2 |
| 20260503030517 | 56 | 0 | 0.0 | 2.6 | 0.00 | 0.00 | 0.00 | 79 | 1012.1 |
| 20260503030034 | 56 | 0 | 0.0 | 2.6 | 0.00 | 0.00 | 0.00 | 79 | 1012.1 |
| 20260503025514 | 57 | 71 | 0.0 | 2.6 | 0.00 | 0.00 | 0.00 | 78 | 1012.1 |
| 20260503025015 | 57 | 0 | 0.0 | 2.6 | 0.00 | 0.00 | 0.00 | 78 | 1012.1 |
| 20260503024532 | 57 | 0 | 0.0 | 2.6 | 0.00 | 0.00 | 0.00 | 78 | 1012.0 |
| 20260503024012 | 57 | 0 | 0.0 | 3.5 | 0.00 | 0.00 | 0.00 | 78 | 1012.0 |
| 20260503023513 | 57 | 0 | 0.0 | 3.5 | 0.00 | 0.00 | 0.00 | 77 | 1011.9 |
| 20260503023030 | 58 | 0 | 0.0 | 1.7 | 0.00 | 0.00 | 0.00 | 77 | 1011.9 |
| 20260503022512 | 58 | 0 | 0.0 | 0.0 | 0.00 | 0.00 | 0.00 | 77 | 1011.9 |
| 20260503022014 | 58 | 0 | 0.0 | 0.0 | 0.00 | 0.00 | 0.00 | 77 | 1011.9 |
| 20260503021532 | 58 | 0 | 0.0 | 3.5 | 0.00 | 0.00 | 0.00 | 77 | 1011.8 |
| 20260503021013 | 58 | 0 | 0.0 | 3.5 | 0.00 | 0.00 | 0.00 | 76 | 1011.9 |
| 20260503020513 | 59 | 0 | 0.0 | 3.5 | 0.00 | 0.00 | 0.00 | 75 | 1011.8 |
| 20260503020032 | 59 | 0 | 0.0 | 0.9 | 0.00 | 0.00 | 0.00 | 75 | 1011.8 |
| 20260503015513 | 59 | 0 | 0.0 | 0.9 | 0.00 | 0.00 | 0.00 | 75 | 1011.8 |
| 20260503015014 | 59 | 0 | 0.0 | 2.6 | 0.00 | 0.00 | 0.00 | 75 | 1011.9 |
| 20260503014534 | 59 | 0 | 0.0 | 4.3 | 0.00 | 0.00 | 0.00 | 75 | 1011.9 |
| 20260503014014 | 60 | 0 | 0.0 | 5.2 | 0.00 | 0.00 | 0.00 | 75 | 1011.9 |
| 20260503013514 | 60 | 0 | 0.0 | 5.2 | 0.00 | 0.00 | 0.00 | 74 | 1011.9 |
| 20260503013030 | 60 | 0 | 0.0 | 4.3 | 0.00 | 0.00 | 0.00 | 74 | 1011.9 |
| 20260503012514 | 60 | 0 | 0.0 | 3.5 | 0.00 | 0.00 | 0.00 | 74 | 1011.9 |
| 20260503012019 | 60 | 0 | 0.0 | 6.1 | 0.00 | 0.00 | 0.00 | 74 | 1012.0 |
| 20260503011532 | 60 | 0 | 0.0 | 6.1 | 0.00 | 0.00 | 0.00 | 73 | 1012.0 |
| 20260503011013 | 61 | 0 | 0.0 | 7.0 | 0.00 | 0.00 | 0.00 | 73 | 1011.8 |
| 20260503010514 | 61 | 0 | 0.9 | 9.6 | 0.00 | 0.00 | 0.00 | 72 | 1011.9 |
| 20260503010030 | 61 | 0 | 0.0 | 9.6 | 0.00 | 0.00 | 0.00 | 72 | 1011.9 |
| 20260503005515 | 61 | 0 | 1.7 | 9.6 | 0.00 | 0.00 | 0.00 | 72 | 1011.8 |
| 20260503005016 | 61 | 0 | 0.9 | 8.7 | 0.00 | 0.00 | 0.00 | 72 | 1011.9 |
| 20260503004532 | 61 | 293 | 0.0 | 7.0 | 0.00 | 0.00 | 0.00 | 72 | 1011.9 |
| 20260503004013 | 62 | 0 | 0.0 | 9.6 | 0.00 | 0.00 | 0.00 | 71 | 1011.9 |
| 20260503003514 | 62 | 319 | 0.9 | 9.6 | 0.00 | 0.00 | 0.00 | 71 | 1011.8 |
| 20260503003047 | 62 | 0 | 2.6 | 9.6 | 0.00 | 0.00 | 0.00 | 70 | 1011.9 |
| 20260503002513 | 63 | 0 | 0.0 | 9.6 | 0.00 | 0.00 | 0.00 | 70 | 1011.8 |
| 20260503002013 | 63 | 329 | 0.9 | 9.6 | 0.00 | 0.00 | 0.00 | 69 | 1011.9 |
| 20260503001549 | 63 | 0 | 0.9 | 7.0 | 0.00 | 0.00 | 0.00 | 69 | 1011.9 |
| 20260503001013 | 64 | 279 | 0.9 | 5.2 | 0.00 | 0.00 | 0.00 | 68 | 1011.9 |
| 20260503000515 | 64 | 311 | 0.0 | 11.3 | 0.00 | 0.00 | 0.00 | 68 | 1011.9 |
| 20260503000032 | 64 | 0 | 2.6 | 11.3 | 0.00 | 0.00 | 0.00 | 68 | 1011.9 |
| 20260502235514 | 65 | 5 | 0.9 | 8.7 | 0.00 | 0.00 | 0.00 | 67 | 1011.8 |
| 20260502235013 | 65 | 0 | 1.7 | 8.7 | 0.00 | 0.00 | 0.00 | 66 | 1011.8 |
| 20260502234535 | 66 | 0 | 0.9 | 7.8 | 0.00 | 0.00 | 0.00 | 65 | 1011.8 |
| 20260502234014 | 66 | 305 | 0.0 | 6.1 | 0.00 | 0.00 | 0.00 | 65 | 1011.8 |
| 20260502233514 | 67 | 319 | 0.0 | 6.1 | 0.00 | 0.00 | 0.00 | 64 | 1011.8 |
| 20260502233032 | 67 | 0 | 0.0 | 7.0 | 0.00 | 0.00 | 0.00 | 65 | 1011.7 |
| 20260502232513 | 67 | 0 | 0.9 | 7.0 | 0.00 | 0.00 | 0.00 | 64 | 1011.8 |
| 20260502232015 | 67 | 93 | 0.0 | 4.3 | 0.00 | 0.00 | 0.00 | 65 | 1011.9 |
| 20260502231533 | 67 | 0 | 0.9 | 4.3 | 0.00 | 0.00 | 0.00 | 64 | 1011.8 |
| 20260502231014 | 67 | 0 | 0.0 | 2.6 | 0.00 | 0.00 | 0.00 | 65 | 1011.9 |
| 20260502230519 | 67 | 0 | 0.0 | 2.6 | 0.00 | 0.00 | 0.00 | 64 | 1012.0 |
| 20260502230035 | 67 | 94 | 0.0 | 1.7 | 0.00 | 0.00 | 0.00 | 66 | 1012.1 |
| 20260502225514 | 67 | 0 | 0.0 | 1.7 | 0.00 | 0.00 | 0.00 | 64 | 1012.2 |
| 20260502225016 | 67 | 0 | 0.0 | 5.2 | 0.00 | 0.00 | 0.00 | 65 | 1012.3 |
| 20260502224529 | 67 | 0 | 0.0 | 5.2 | 0.00 | 0.00 | 0.00 | 64 | 1012.3 |
| 20260502224013 | 67 | 194 | 0.0 | 5.2 | 0.00 | 0.00 | 0.00 | 63 | 1012.4 |
| 20260502223513 | 67 | 0 | 0.0 | 5.2 | 0.00 | 0.00 | 0.00 | 63 | 1012.5 |
| 20260502223033 | 68 | 0 | 0.0 | 3.5 | 0.00 | 0.00 | 0.00 | 62 | 1012.7 |
| 20260502222513 | 68 | 0 | 0.0 | 3.5 | 0.00 | 0.00 | 0.00 | 61 | 1012.7 |
| 20260502222014 | 69 | 0 | 0.0 | 4.3 | 0.00 | 0.00 | 0.00 | 61 | 1012.8 |
| 20260502221535 | 69 | 0 | 0.0 | 4.3 | 0.00 | 0.00 | 0.00 | 59 | 1012.9 |
| 20260502221014 | 69 | 0 | 0.0 | 4.3 | 0.00 | 0.00 | 0.00 | 58 | 1013.1 |
| 20260502220514 | 69 | 196 | 0.0 | 0.9 | 0.00 | 0.00 | 0.00 | 59 | 1013.2 |
| 20260502220035 | 70 | 0 | 0.0 | 0.0 | 0.00 | 0.00 | 0.00 | 58 | 1013.2 |
| 20260502215515 | 70 | 0 | 0.0 | 4.3 | 0.00 | 0.00 | 0.00 | 60 | 1013.4 |
| 20260502215013 | 69 | 0 | 0.0 | 4.3 | 0.00 | 0.00 | 0.00 | 58 | 1013.3 |
| 20260502214532 | 69 | 0 | 0.0 | 4.3 | 0.00 | 0.00 | 0.00 | 60 | 1013.4 |
| 20260502214014 | 69 | 0 | 0.0 | 2.6 | 0.00 | 0.00 | 0.00 | 61 | 1013.4 |
| 20260502213515 | 68 | 0 | 0.0 | 0.0 | 0.00 | 0.00 | 0.00 | 64 | 1013.6 |
| 20260502213030 | 68 | 0 | 0.0 | 1.7 | 0.00 | 0.00 | 0.00 | 63 | 1013.6 |
| 20260502212514 | 67 | 0 | 0.0 | 4.3 | 0.00 | 0.00 | 0.00 | 64 | 1013.6 |
| 20260502212018 | 67 | 0 | 0.0 | 4.3 | 0.00 | 0.00 | 0.00 | 68 | 1013.7 |